Weather History for KCAE - May, 2013

Change the Weather History Date:

Monday, May 13, 2013

  Actual Average Record
Temperature  
Mean Temperature 62 °F 71 °F  
Max Temperature 73 °F 83 °F 97 °F (2000)
Min Temperature 50 °F 59 °F 42 °F (1960)
Degree Days  
Heating Degree Days 3 1  
Month to date heating degree days 14 15  
Since 1 July heating degree days 2255 2546  
Cooling Degree Days 0 6  
Month to date cooling degree days 38 67  
Year to date cooling degree days 166 162  
Growing Degree Days 14 (Base 50)    
Moisture  
Dew Point 37 °F    
Average Humidity 47    
Maximum Humidity 71    
Minimum Humidity 23    
Precipitation  
Precipitation 0.00 in 0.09 in 2.08 in (1968)
Month to date precipitation 2.31 1.19  
Year to date precipitation 17.31 14.73  
Sea Level Pressure  
Sea Level Pressure 30.10 in    
Wind  
Wind Speed 6 mph (NNW)    
Max Wind Speed 17 mph    
Max Gust Speed 24 mph    
Visibility 10 miles    
Events      
T = Trace of Precipitation, MM = Missing Value Source: NWS Daily Summary

Daily Weather History Graph

Daily Weather History Graph

Search for Another Location

Airport or City:

Trip Planner

Search our weather history database for the weather conditions in past years. The results will help you decide how hot, cold, wet, or windy it might be!

Date:

Astronomy

May. 13, 2013 Rise Set
Actual Time 6:24 AM EDT 8:17 PM EDT
Civil Twilight 5:56 AM EDT 8:45 PM EDT
Nautical Twilight 5:23 AM EDT 9:18 PM EDT
Astronomical Twilight 4:48 AM EDT 9:54 PM EDT
Moon 9:10 AM EDT (5/13) 11:25 PM EDT (5/13)
Length of Visible Light 14h 48m
Length of Day
13h 53m
Waxing Crescent, 12% of the Moon is Illuminated
May 13
Waxing Crescent
May 18
First Quarter
May 25
Full
May 31
Last Quarter
Jun 8
New

Hourly Weather History & Observations

Time (EDT) Temp. Dew Point Humidity Pressure Visibility Wind Dir Wind Speed Gust Speed Precip Events Conditions
12:56 AM 63.0 °F 37.0 °F 38% 30.04 in 10.0 mi NNW 4.6 mph - N/A   Clear
1:56 AM 60.1 °F 39.0 °F 46% 30.04 in 10.0 mi NNW 3.5 mph - N/A   Clear
2:56 AM 57.9 °F 39.0 °F 49% 30.05 in 10.0 mi North 3.5 mph - N/A   Clear
3:56 AM 57.0 °F 37.9 °F 49% 30.06 in 10.0 mi Calm Calm - N/A   Clear
4:56 AM 55.9 °F 37.0 °F 49% 30.07 in 10.0 mi NNW 4.6 mph - N/A   Clear
5:56 AM 54.0 °F 37.9 °F 55% 30.09 in 10.0 mi North 4.6 mph - N/A   Clear
6:56 AM 54.0 °F 37.9 °F 55% 30.11 in 10.0 mi North 3.5 mph - N/A   Mostly Cloudy
7:56 AM 55.9 °F 39.0 °F 53% 30.14 in 10.0 mi North 5.8 mph - N/A   Mostly Cloudy
8:56 AM 57.9 °F 37.9 °F 47% 30.16 in 10.0 mi NNE 4.6 mph - N/A   Scattered Clouds
9:56 AM 62.6 °F 37.4 °F 39% 30.17 in 10.0 mi North 5.8 mph - N/A   Scattered Clouds
10:56 AM 64.9 °F 32.0 °F 29% 30.17 in 10.0 mi NNE 10.4 mph - N/A   Partly Cloudy
11:56 AM 66.9 °F 34.0 °F 30% 30.17 in 10.0 mi WNW 8.1 mph - N/A   Partly Cloudy
12:56 PM 70.0 °F 35.1 °F 28% 30.15 in 10.0 mi WNW 10.4 mph - N/A   Partly Cloudy
1:56 PM 71.1 °F 35.1 °F 27% 30.13 in 10.0 mi WNW 12.7 mph 17.3 mph N/A   Partly Cloudy
2:56 PM 71.1 °F 32.0 °F 24% 30.12 in 10.0 mi WNW 13.8 mph 24.2 mph N/A   Partly Cloudy
4:56 PM 73.0 °F 33.1 °F 23% 30.06 in 10.0 mi West 6.9 mph 23.0 mph N/A   Partly Cloudy
5:56 PM 73.0 °F 33.1 °F 23% 30.06 in 10.0 mi NW 11.5 mph - N/A   Partly Cloudy
6:56 PM 72.0 °F 34.0 °F 25% 30.06 in 10.0 mi NW 9.2 mph - N/A   Partly Cloudy
7:56 PM 69.1 °F 33.1 °F 26% 30.07 in 10.0 mi WNW 8.1 mph - N/A   Clear
8:56 PM 63.0 °F 37.9 °F 40% 30.10 in 10.0 mi West 3.5 mph - N/A   Clear
9:56 PM 57.0 °F 41.0 °F 55% 30.12 in 10.0 mi Calm Calm - N/A   Clear
10:56 PM 54.0 °F 42.1 °F 64% 30.14 in 10.0 mi Calm Calm - N/A   Clear
11:56 PM 52.0 °F 42.1 °F 69% 30.16 in 10.0 mi Calm Calm - N/A   Clear